FENGYUN 1C DEB

Satellite information

Favourite Embed

Satellite Type and Status

DEBRISIN ORBIT

Key statistics

Satellite FENGYUN 1C DEB at a glance.

Uptime

9714

Days in orbit

Revolutions

≈ 13.7

Per day

Orbit

SSO

Sun Synchronous Orbit

Inclination

99.8

Latest

Satellite identification and parameters

Extended collection of information and parameters for FENGYUN 1C DEB.

Object identification

Identified? True

Debris? True

Object name: FENGYUN 1C DEB

International designator: 1999-025CDU

Object number (NORAD): 31721

Object ID (CCSDS): 31721

Country: PEOPLES REPUBLIC OF CHINA (PRC)

Current information (Y/N): Y

RCS size: SMALL

Orbital parameters

Period: 104.821 minutes

Inclination: 99.7812 deg

SMA: 7364.179 km

Apoapsis: 1219.772 km

Periapsis: 752.316 km

RAAN: 325.8252 deg

Eccentricy: 0.03173857

Argument of periapsis: 184.8643 deg

Mean anomaly: 198.956 deg

Mean motion: 13.73777058 rev/day

Mean motion (dot): 0.00000642 rev/day2

B* drag term: 0.00051189281 1/REarth

Two-line elements (TLE)

Creation date: Dec. 12, 2025, 10:14 a.m.

Reference frame: TEME

Reference center: EARTH

Epoch: Dec. 12, 2025, 5:09 a.m. UTC

TLE line 0: 0 FENGYUN 1C DEB

TLE line 1: 1 31721U 99025CDU 25346.21488566 .00000642 00000-0 51189-3 0 9998

TLE line 2: 2 31721 99.7812 325.8252 0317386 184.8643 198.9560 13.73777058673799

Live tracking on map

Real-time ground track for satellite FENGYUN 1C DEB.

In-orbit conjunctions

A list of the most updated potential collisions computed for object FENGYUN 1C DEB.

Target Orbit TCA Probability of collision Miss distance Type
CZ-6A DEB LEO 2024-11-28 16:43:27 0.0001465826 355.0 (m) DEBRIS
TEMPSAT 2 LEO 2024-10-06 12:40:56 0.0001293048 773.0 (m) PAYLOAD

Associated space launch

Chinese polar orbiting meteorological satellite

FENGYUN 1C DEB was lifted into orbit during the mission ‘Long March 4B | Feng Yun 1C’, on board a Long March 4B space rocket.

The launch took place on May 10, 1999, 1:33 a.m. from Launch Complex 7.

For more information about the launch, click the button.

Launch to space Long March 4B | Feng Yun 1C
Long March 4B | Feng Yun 1C

Agency: N/A

Status: Launch Successful

Launch date: May 10, 1999, 1:33 a.m. UTC

Rocket: Long March 4B

Launch pad: Launch Complex 7

Location: Taiyuan Satellite Launch Center, People's Republic of China

...

Latest news about this satellite

There are no fresh news available about this satellite. Check back as we update our databases every day.


Newsletter sign-up

Weekly statistics, charts and insights to help you stay on top of the space industry.